{"data":{"norad_id":54863,"epoch":"2026-05-25T00:24:35.517600Z","epoch_age_seconds":80353,"freshness":"FRESH","line1":"1 54863U 22177AV  26145.01707775 -.00000353  00000+0 -33143-5 0  9998","line2":"2 54863  43.0027  50.5411 0001351 231.6251 128.4479 15.27577495188767","mean_motion":15.27577495,"eccentricity":0.0001351,"inclination_deg":43.0027,"raan_deg":50.5411,"arg_perigee_deg":231.6251,"mean_anomaly_deg":128.4479,"bstar":-3.3143e-6,"rev_number":18876,"period_min":94.266903297106,"perigee_km":482.12964966613,"apogee_km":483.98354417602,"semimajor_km":6861.1935969211,"source":"CELESTRAK","updated_at":"2026-05-25T13:38:17.728322Z"}}